Location: *
(45.9500°N, 9.0833°E)
Time: 15:25:58
(UTC+00:00)

Cosmos 2322 - Pass Details

Date: 03 March 2021
Orbit: 842 x 853 km, 71.0° (Epoch: 14 April)

Event Time Altitude Azimuth Distance (km) Brightness Sun altitude
Rises 19:43:34 0° 215° (SW) 3,410 7.0 -26.6°
Reaches altitude 10° 19:46:02 10° 219° (SW) 2,478 6.3 -27.0°
Maximum altitude 19:51:41 62° 299° (WNW) 956 4.1 -27.9°
Drops below altitude 10° 19:57:22 10° 21° (NNE) 2,491 6.1 -28.8°
Sets 19:59:52 0° 25° (NNE) 3,429 6.9 -29.2°
